timestamp,wind_dir_avg,wind_spd_avg,wind_spd_max_dir,wind_spd_gust,battery_voltage,lat,long
2022-06-11 00:04:00+00:00,207.0,17.45,211.0,19.72,12.89,47.59359,-54.27349
2022-06-11 00:14:01+00:00,209.0,16.07,210.0,19.25,12.33,47.59359,-54.27349
2022-06-11 00:24:01+00:00,225.0,12.15,229.0,13.34,12.33,47.59359,-54.27349
2022-06-11 00:34:01+00:00,241.0,9.59,239.0,11.75,12.33,47.59359,-54.27349
2022-06-11 00:44:01+00:00,232.0,10.47,235.0,12.69,12.33,47.59359,-54.27349
2022-06-11 00:54:01+00:00,233.0,11.21,247.0,16.1,12.33,47.59359,-54.27349
2022-06-11 01:04:01+00:00,234.0,10.19,238.0,12.19,12.33,47.59359,-54.27349
2022-06-11 01:14:00+00:00,234.0,11.19,234.0,12.61,12.41,47.59359,-54.27349
2022-06-11 01:24:00+00:00,232.0,10.55,232.0,13.04,12.41,47.59359,-54.27349
2022-06-11 01:34:00+00:00,230.0,10.52,232.0,13.52,12.41,47.59359,-54.27349
2022-06-11 01:44:00+00:00,224.0,10.64,224.0,12.99,12.41,47.59359,-54.27349
2022-06-11 01:54:00+00:00,223.0,11.96,219.0,14.53,12.41,47.59359,-54.27349
2022-06-11 02:04:00+00:00,219.0,12.11,217.0,14.15,12.41,47.59359,-54.27349
2022-06-11 02:14:01+00:00,214.0,14.31,213.0,16.22,12.33,47.59359,-54.27349
2022-06-11 02:24:01+00:00,215.0,13.87,214.0,16.09,12.33,47.59359,-54.27349
2022-06-11 02:34:01+00:00,215.0,13.85,213.0,15.15,12.33,47.59359,-54.27349
2022-06-11 02:44:01+00:00,215.0,14.78,215.0,16.64,12.33,47.59359,-54.27349
2022-06-11 02:54:01+00:00,215.0,14.53,216.0,16.46,12.33,47.59359,-54.27349
2022-06-11 03:04:01+00:00,216.0,14.1,214.0,16.04,12.33,47.59359,-54.27349
2022-06-11 03:14:01+00:00,221.0,12.27,221.0,15.73,12.41,47.59359,-54.27349
2022-06-11 03:24:01+00:00,224.0,9.12,224.0,11.61,12.41,47.59359,-54.27349
2022-06-11 03:34:01+00:00,228.0,8.71,239.0,10.24,12.41,47.59359,-54.27349
2022-06-11 03:44:01+00:00,228.0,7.88,232.0,10.1,12.41,47.59359,-54.27349
2022-06-11 03:54:01+00:00,230.0,10.25,231.0,12.39,12.41,47.59359,-54.27349
2022-06-11 04:04:01+00:00,226.0,9.25,231.0,10.79,12.41,47.59359,-54.27349
2022-06-11 04:14:00+00:00,223.0,7.47,219.0,8.55,12.41,47.59359,-54.27349
2022-06-11 04:24:00+00:00,218.0,8.25,217.0,8.61,12.41,47.59359,-54.27349
2022-06-11 04:34:00+00:00,219.0,9.08,225.0,10.94,12.41,47.59359,-54.27349
2022-06-11 04:44:00+00:00,223.0,7.35,218.0,8.17,12.41,47.59359,-54.27349
2022-06-11 04:54:00+00:00,221.0,7.68,221.0,8.18,12.41,47.59359,-54.27349
2022-06-11 05:04:00+00:00,221.0,8.11,220.0,9.49,12.41,47.59359,-54.27349
2022-06-11 05:14:00+00:00,221.0,8.15,229.0,9.47,12.25,47.59359,-54.27349
2022-06-11 05:24:00+00:00,219.0,9.17,223.0,11.36,12.25,47.59359,-54.27349
2022-06-11 05:34:00+00:00,211.0,9.01,208.0,9.64,12.25,47.59359,-54.27349
2022-06-11 05:44:00+00:00,315.0,0.01,218.0,0.0,12.25,47.59359,-54.27349
2022-06-11 05:54:00+00:00,199.0,7.37,196.0,8.45,12.25,47.59359,-54.27349
2022-06-11 06:04:00+00:00,206.0,7.9,219.0,9.55,12.25,47.59359,-54.27349
2022-06-11 06:14:00+00:00,213.0,8.89,216.0,9.7,12.25,47.59359,-54.27349
2022-06-11 06:24:00+00:00,210.0,9.26,216.0,10.23,12.25,47.59359,-54.27349
2022-06-11 06:34:00+00:00,208.0,9.29,216.0,10.27,12.25,47.59359,-54.27349
2022-06-11 06:44:00+00:00,213.0,9.69,206.0,10.08,12.25,47.59359,-54.27349
2022-06-11 06:54:00+00:00,213.0,9.3,214.0,9.31,12.25,47.59359,-54.27349
2022-06-11 07:04:00+00:00,213.0,9.44,214.0,10.6,12.25,47.59359,-54.27349
2022-06-11 07:14:00+00:00,212.0,9.66,209.0,10.76,12.25,47.59359,-54.27349
2022-06-11 07:24:00+00:00,214.0,9.18,212.0,10.25,12.25,47.59359,-54.27349
2022-06-11 07:34:00+00:00,226.0,8.63,227.0,8.64,12.25,47.59359,-54.27349
2022-06-11 07:44:00+00:00,213.0,8.88,213.0,9.71,12.25,47.59359,-54.27349
2022-06-11 07:54:00+00:00,215.0,9.84,206.0,12.06,12.25,47.59359,-54.27349
2022-06-11 08:04:00+00:00,214.0,9.33,215.0,9.77,12.25,47.59359,-54.27349
2022-06-11 08:14:00+00:00,210.0,10.12,212.0,11.49,12.33,47.59359,-54.27349
2022-06-11 08:24:00+00:00,212.0,8.86,208.0,9.91,12.33,47.59359,-54.27349
2022-06-11 08:34:00+00:00,315.0,0.01,231.0,0.0,12.33,47.59359,-54.27349
2022-06-11 08:44:00+00:00,315.0,0.01,202.0,0.0,12.33,47.59359,-54.27349
2022-06-11 08:54:00+00:00,211.0,7.72,214.0,8.44,12.33,47.59359,-54.27349
2022-06-11 09:04:00+00:00,213.0,7.09,225.0,9.72,12.33,47.59359,-54.27349
2022-06-11 09:14:00+00:00,218.0,6.6,233.0,8.62,12.33,47.59359,-54.27349
2022-06-11 09:24:00+00:00,221.0,9.31,220.0,10.19,12.33,47.59359,-54.27349
2022-06-11 09:34:00+00:00,315.0,0.01,208.0,0.0,12.33,47.59359,-54.27349
2022-06-11 09:44:00+00:00,315.0,0.01,208.0,0.0,12.33,47.59359,-54.27349
2022-06-11 09:54:00+00:00,315.0,0.01,208.0,0.0,12.33,47.59359,-54.27349
2022-06-11 10:04:00+00:00,315.0,0.01,208.0,0.0,12.33,47.59359,-54.27349
2022-06-11 10:14:00+00:00,315.0,0.01,210.0,0.0,13.05,47.59359,-54.27349
2022-06-11 10:24:00+00:00,196.0,8.37,196.0,9.76,13.05,47.59359,-54.27349
2022-06-11 10:34:00+00:00,203.0,8.83,218.0,11.63,13.05,47.59359,-54.27349
2022-06-11 10:44:00+00:00,196.0,7.34,190.0,8.17,13.05,47.59359,-54.27349
2022-06-11 10:54:00+00:00,192.0,8.07,199.0,8.95,13.05,47.59359,-54.27349
2022-06-11 11:04:00+00:00,196.0,8.07,219.0,9.3,13.05,47.59359,-54.27349
2022-06-11 11:14:00+00:00,191.0,8.56,198.0,10.22,13.44,47.59359,-54.27349
2022-06-11 11:24:00+00:00,190.0,8.69,186.0,9.81,13.44,47.59359,-54.27349
2022-06-11 11:34:00+00:00,192.0,8.34,193.0,9.38,13.44,47.59359,-54.27349
2022-06-11 11:44:00+00:00,193.0,8.4,192.0,9.82,13.44,47.59359,-54.27349
2022-06-11 11:54:00+00:00,192.0,8.14,192.0,9.15,13.44,47.59359,-54.27349
2022-06-11 12:04:00+00:00,196.0,8.64,188.0,10.34,13.44,47.59359,-54.27349
2022-06-11 12:14:00+00:00,201.0,8.59,217.0,10.54,13.6,47.59359,-54.27349
2022-06-11 12:24:00+00:00,200.0,8.94,210.0,9.94,13.6,47.59359,-54.27349
2022-06-11 12:34:00+00:00,207.0,9.05,216.0,11.0,13.6,47.59359,-54.27349
2022-06-11 12:44:00+00:00,215.0,9.18,222.0,10.43,13.6,47.59359,-54.27349
2022-06-11 12:54:00+00:00,211.0,8.94,211.0,10.47,13.6,47.59359,-54.27349
2022-06-11 13:04:00+00:00,194.0,8.17,195.0,9.41,13.6,47.59359,-54.27349
2022-06-11 13:14:00+00:00,193.0,7.79,186.0,8.83,13.68,47.59359,-54.27349
2022-06-11 13:24:00+00:00,188.0,8.33,197.0,9.48,13.68,47.59359,-54.27349
2022-06-11 13:34:00+00:00,315.0,0.01,210.0,0.0,13.68,47.59359,-54.27349
2022-06-11 13:44:00+00:00,197.0,7.58,207.0,8.46,13.68,47.59359,-54.27349
2022-06-11 13:54:00+00:00,192.0,8.41,194.0,10.3,13.68,47.59359,-54.27349
2022-06-11 14:04:00+00:00,197.0,8.48,210.0,10.09,13.68,47.59359,-54.27349
2022-06-11 14:14:00+00:00,199.0,7.69,223.0,10.13,14.08,47.59359,-54.27349
2022-06-11 14:24:00+00:00,198.0,8.12,223.0,10.37,14.08,47.59359,-54.27349
2022-06-11 14:34:00+00:00,196.0,8.49,203.0,9.61,14.08,47.59359,-54.27349
2022-06-11 14:44:00+00:00,206.0,7.91,207.0,9.54,14.08,47.59359,-54.27349
2022-06-11 14:54:00+00:00,205.0,8.69,217.0,10.21,14.08,47.59359,-54.27349
2022-06-11 15:04:00+00:00,212.0,9.69,216.0,9.9,14.08,47.59359,-54.27349
2022-06-11 15:14:00+00:00,213.0,11.39,211.0,12.81,14.32,47.59359,-54.27349
2022-06-11 15:24:00+00:00,213.0,10.58,215.0,12.22,14.32,47.59359,-54.27349
2022-06-11 15:34:00+00:00,215.0,10.65,215.0,11.58,14.32,47.59359,-54.27349
2022-06-11 15:44:00+00:00,214.0,10.4,212.0,11.66,14.32,47.59359,-54.27349
2022-06-11 15:54:00+00:00,207.0,9.5,205.0,10.28,14.32,47.59359,-54.27349
2022-06-11 16:04:00+00:00,212.0,10.64,215.0,11.96,14.32,47.59359,-54.27349
2022-06-11 16:14:00+00:00,216.0,12.32,227.0,14.62,14.24,47.59359,-54.27349
2022-06-11 16:24:00+00:00,215.0,11.51,218.0,13.6,14.24,47.59359,-54.27349
2022-06-11 16:34:00+00:00,211.0,10.8,212.0,12.46,14.24,47.59359,-54.27349
2022-06-11 16:44:00+00:00,212.0,10.86,215.0,12.7,14.24,47.59359,-54.27349
2022-06-11 16:54:00+00:00,210.0,11.78,207.0,13.39,14.24,47.59359,-54.27349
2022-06-11 17:04:00+00:00,210.0,10.9,213.0,12.74,14.24,47.59359,-54.27349
2022-06-11 17:14:01+00:00,208.0,10.65,211.0,12.36,14.32,47.59359,-54.27349
2022-06-11 17:24:01+00:00,213.0,10.64,210.0,12.11,14.32,47.59359,-54.27349
2022-06-11 17:34:01+00:00,213.0,11.26,214.0,13.13,14.32,47.59359,-54.27349
2022-06-11 17:44:01+00:00,210.0,10.76,213.0,11.9,14.32,47.59359,-54.27349
2022-06-11 17:54:01+00:00,211.0,10.54,210.0,12.21,14.32,47.59359,-54.27349
2022-06-11 18:04:01+00:00,216.0,10.54,211.0,11.65,14.32,47.59359,-54.27349
2022-06-11 18:14:00+00:00,215.0,11.12,213.0,12.88,13.68,47.59359,-54.27349
2022-06-11 18:24:00+00:00,214.0,11.51,214.0,12.39,13.68,47.59359,-54.27349
2022-06-11 18:34:00+00:00,213.0,11.16,214.0,12.5,13.68,47.59359,-54.27349
2022-06-11 18:44:00+00:00,215.0,10.68,215.0,12.42,13.68,47.59359,-54.27349
2022-06-11 18:54:00+00:00,214.0,11.24,211.0,12.36,13.68,47.59359,-54.27349
2022-06-11 19:04:00+00:00,212.0,11.65,210.0,13.26,13.68,47.59359,-54.27349
2022-06-11 19:14:00+00:00,214.0,11.76,229.0,14.09,13.68,47.59359,-54.27349
2022-06-11 19:24:00+00:00,214.0,11.08,216.0,12.09,13.68,47.59359,-54.27349
2022-06-11 19:34:00+00:00,212.0,11.73,213.0,13.36,13.68,47.59359,-54.27349
2022-06-11 19:44:00+00:00,210.0,10.9,211.0,11.91,13.68,47.59359,-54.27349
2022-06-11 19:54:00+00:00,212.0,11.2,211.0,12.08,13.68,47.59359,-54.27349
2022-06-11 20:04:00+00:00,210.0,11.33,212.0,12.34,13.68,47.59359,-54.27349
2022-06-11 20:14:01+00:00,211.0,10.53,209.0,12.35,13.76,47.59359,-54.27349
2022-06-11 20:24:01+00:00,210.0,11.04,211.0,12.3,13.76,47.59359,-54.27349
2022-06-11 20:34:01+00:00,211.0,10.8,213.0,12.34,13.76,47.59359,-54.27349
2022-06-11 20:44:01+00:00,211.0,10.91,212.0,11.82,13.76,47.59359,-54.27349
2022-06-11 20:54:01+00:00,210.0,10.94,212.0,11.7,13.76,47.59359,-54.27349
2022-06-11 21:04:01+00:00,209.0,10.46,207.0,11.39,13.76,47.59359,-54.27349
2022-06-11 21:14:01+00:00,315.0,0.01,210.0,0.0,13.68,47.59359,-54.27349
2022-06-11 21:24:01+00:00,206.0,11.6,206.0,12.04,13.68,47.59359,-54.27349
2022-06-11 21:34:01+00:00,206.0,11.44,206.0,12.02,13.68,47.59359,-54.27349
2022-06-11 21:44:01+00:00,206.0,11.75,207.0,11.76,13.68,47.59359,-54.27349
2022-06-11 21:54:01+00:00,206.0,11.57,204.0,12.37,13.68,47.59359,-54.27349
2022-06-11 22:04:01+00:00,207.0,11.65,203.0,12.17,13.68,47.59359,-54.27349
2022-06-11 22:14:01+00:00,204.0,12.27,204.0,12.83,13.53,47.59359,-54.27349
2022-06-11 22:24:01+00:00,207.0,11.53,208.0,11.54,13.53,47.59359,-54.27349
2022-06-11 22:34:01+00:00,315.0,0.01,210.0,0.0,13.53,47.59359,-54.27349
2022-06-11 22:44:01+00:00,315.0,0.01,213.0,0.0,13.53,47.59359,-54.27349
2022-06-11 22:54:01+00:00,315.0,0.01,214.0,0.0,13.53,47.59359,-54.27349
2022-06-11 23:04:01+00:00,195.0,8.64,194.0,9.46,13.53,47.59359,-54.27349
2022-06-11 23:14:01+00:00,315.0,0.01,196.0,0.0,13.13,47.59359,-54.27349
2022-06-11 23:24:01+00:00,194.0,8.36,195.0,8.52,13.13,47.59359,-54.27349
2022-06-11 23:34:01+00:00,195.0,9.16,196.0,9.16,13.13,47.59359,-54.27349
2022-06-11 23:44:01+00:00,197.0,7.39,197.0,7.91,13.13,47.59359,-54.27349
2022-06-11 23:54:01+00:00,197.0,7.55,198.0,8.1,13.13,47.59359,-54.27349
